METEOR 2-6 DEB, 45501

Orbit data source: Space-Track

METEOR 2-6 DEB, 45501 is space debris in LEO originally from a launch on Tue, 09 Sep 1980 UTC launched from the Plesetsk Missile And Space Complex (PKMTR). Debris objects in space refer to the collection of defunct objects orbiting the Earth. Examples of debris include non-operational satellites, rocket bodies, and fragments generated from explosions, collisions, or faulty payload assembly.

Loading next visibility...
Identifier
45501, 1980-073V
Orbit
LEO
Country
Flag of CISCIS
Related business
Manufacturer
Unknown
Mission
Spacecraft
Bus & Motor
Unknown
Mass
Unknown
Launch date (UTC)
1980-09-09 (45 years ago)
Launch vehicle
Unknown
Launch site
Plesetsk Missile And Space Complex (PKMTR)
Object type
Payload
Rocket body
Debris
Shape & HBR
Unknown shape, 0.1 m
Radar Cross Section
Small (<0.1 m²)

Expand to show TLE details & history
Last TLE update: 6 days ago

TLE from 6 days ago
0 METEOR 2-6 DEB
1 45501U 80073V   25346.92797374  .00010376  00000-0  36508-2 0  9992
2 45501  81.2150 223.3889 0027507 123.1076 237.2754 14.34589848543578
Epoch: 2025-12-12T22:16Z
TLE epoch observation values (Epoch: 2025-12-12T22:16:16.931Z)
Latitude
-0.00004°
Longitude
167.45578°
Altitude
790.041 km
Speed
7.453 km/s
True Right ascension
14h 53m 33s
True Declination
0° 00' 00"
Sunlit
Object was in daylight at epoch
Visualization orbit readout
Latitude
Unknown
Longitude
Unknown
Altitude
Unknown
Speed
Unknown
Apparent Right ascension
Unknown
Apparent Declination
Unknown
Sunlit
N/A
Visualization observer readout
Local Sidereal Time
17:41:12
Azimuth
Unknown
Elevation
Unknown
Doppler factor
Unknown
Orbital elements
Apogee altitude
793.245 km
Perigee altitude
753.9 km
Semi-major axis
7,151.709 km
Eccentricity
0.00275
Inclination
81.215°
RAAN
223.3889°
Arg. of periapsis
123.1076°
True anomaly
237.01072°
Mean anomaly
237.2754°
Eccentric anomaly
237.14301°
Mean motion
3.58863 °/min
Orbital period
100.32 mins
BSTAR
0.0036508
Loading maneuver chart data...
Computing Atmospheric mass density...
Loading historical data...
Loading historical data...
Loading historical data...
Loading historical data...
Loading historical data...
Loading historical data...
Loading historical data...

Documentation

Showing up to 5 results
|